GFSGL_con_lsi_111.txt.gz
Lid_Strength_Index
12 12 11 11 10 10 10 10 10 9 8 8 6 2 2 1 1 2 2 2 3 2 2 2 2 1 2 2 2 2 4 4 4 5 4 3 1 1 1 1 1 1 3
12 12 12 11 11 11 11 10 11 10 9 9 7 3 1 2 1 2 2 2 2 2 2 2 2 2 2 2 2 2 2 3 3 4 3 3 2 1 1 2 2 2 3
12 12 12 12 12 12 12 12 12 11 11 11 9 8 5 2 2 2 2 2 2 2 2 2 3 2 2 2 2 2 2 2 2 3 4 2 2 1 2 2 4 7 8
12 12 12 12 12 12 13 13 13 12 12 12 11 11 10 9 9 7 2 2 3 4 3 3 2 2 2 2 2 2 2 2 2 3 3 3 2 2 2 6 8 8 9
13 12 13 12 12 12 13 14 14 14 14 14 13 13 13 13 13 12 9 3 4 4 5 5 6 7 8 6 2 2 2 3 3 3 4 3 3 3 3 5 8 11 11
12 12 12 12 12 13 13 14 15 16 16 16 16 15 15 14 14 14 12 3 4 5 7 9 10 11 12 12 12 13 10 3 3 3 4 4 4 3 5 7 11 12 14
12 12 12 12 13 13 13 14 15 16 17 17 17 17 17 16 14 15 14 12 10 10 10 10 11 11 11 12 13 14 15 14 14 10 4 3 3 3 5 7 9 9 12
13 13 12 13 14 13 14 14 15 16 17 18 18 18 17 17 15 15 16 16 16 16 16 15 14 14 13 12 14 15 16 15 15 14 14 15 13 5 4 6 8 13 15
13 14 13 14 15 15 15 15 15 16 17 17 17 17 18 17 16 16 16 17 18 18 17 16 16 16 14 13 14 16 16 16 15 15 15 14 14 11 9 11 14 14 17
13 14 14 14 15 16 16 16 16 16 17 17 18 18 17 17 16 16 17 18 19 19 17 17 16 16 16 15 16 16 18 19 18 17 17 16 17 16 15 14 12 12 17
12 13 14 14 15 16 16 17 17 17 18 18 18 18 18 17 17 16 17 19 19 19 19 18 17 16 16 16 16 18 18 17 18 18 18 18 18 18 18 17 16 13 15
12 13 14 14 13 14 16 16 17 18 18 20 20 20 19 18 17 16 16 16 17 18 19 18 17 17 16 17 18 17 17 18 18 19 19 20 20 19 18 18 17 16 16
12 12 13 13 14 14 15 16 16 17 18 18 20 20 20 19 18 17 16 16 16 17 17 18 17 17 17 18 18 18 19 18 19 20 20 20 19 18 18 17 17 17 18
13 13 12 13 14 14 14 15 16 17 18 18 18 18 18 18 18 17 17 16 17 16 17 17 18 18 18 19 18 18 19 19 19 20 20 19 19 19 19 18 19 18 18
12 13 13 13 13 14 14 14 15 15 15 17 17 18 17 17 16 15 16 17 17 17 18 18 19 19 19 19 19 19 18 18 19 19 19 19 19 19 20 19 18 19 20
13 13 13 14 13 13 14 15 12 13 13 14 14 14 17 14 13 14 14 15 15 16 19 20 20 20 20 20 20 20 19 19 19 19 19 19 20 20 20 19 19 20 20
14 14 13 14 14 14 14 15 17 15 14 14 14 14 13 13 14 13 14 15 15 16 19 19 20 21 21 21 20 20 20 19 18 19 19 20 20 20 20 20 20 20 20
17 16 16 16 16 16 17 18 18 19 20 19 17 15 14 14 14 15 15 15 17 17 18 19 19 19 19 20 20 20 20 19 19 19 20 19 20 19 20 21 21 21 21
17 18 18 17 18 18 17 18 18 19 22 24 22 19 18 15 16 16 17 19 19 19 18 18 18 19 19 19 19 19 20 20 20 20 20 20 21 20 21 21 20 21 21
18 17 18 17 17 17 17 17 18 18 20 23 22 23 20 19 20 21 21 21 21 21 20 19 20 20 20 19 19 19 19 19 20 20 21 21 23 21 22 22 22 21 22
18 17 19 17 18 18 18 18 17 19 19 19 23 24 22 20 22 22 22 22 22 22 22 21 21 22 21 21 21 21 21 21 21 21 20 20 21 21 21 21 21 21 21
17 17 17 18 17 18 18 18 18 18 18 19 18 20 22 24 23 24 24 26 27 24 23 23 22 22 23 23 23 24 24 24 24 23 22 21 20 20 20 21 22 22 21
18 19 19 18 19 20 21 19 21 22 21 21 20 18 18 19 21 20 23 27 24 25 25 25 27 25 23 23 26 26 27 26 25 23 24 21 22 22 21 21 21 22 23
19 21 19 21 23 22 26 27 26 23 22 23 24 22 20 17 18 20 21 24 26 26 27 26 26 26 26 28 30 28 26 29 27 24 25 23 22 21 22 22 22 23 24
22 24 24 23 25 26 26 26 27 27 26 25 25 25 22 21 21 22 16 17 22 25 24 25 25 25 27 28 28 28 29 29 28 26 25 24 23 22 23 23 24 23 24
21 21 22 22 22 20 21 19 18 18 19 24 25 24 24 23 22 23 23 21 19 21 24 21 23 23 24 26 25 25 27 27 26 24 24 24 26 26 27 24 23 24 23

GFSGL_con_lsi_114.txt.gz
Lid_Strength_Index
12 12 12 12 12 11 11 11 11 10 10 10 9 8 7 6 3 3 2 2 2 2 2 2 2 2 2 2 2 2 3 4 5 5 4 3 1 2 1 1 1 1 3
12 12 12 12 12 12 12 12 12 12 11 11 10 9 9 9 7 2 3 2 2 2 2 2 2 2 2 2 2 2 2 3 3 5 4 3 2 1 1 1 1 0 1
12 12 12 13 13 13 13 13 12 12 12 12 11 11 11 11 10 8 3 2 2 2 2 2 3 3 3 2 2 2 2 2 2 3 4 3 3 2 1 2 2 3 5
12 12 13 13 13 13 13 13 13 13 13 13 13 12 12 12 12 12 9 5 2 2 2 2 2 2 2 2 2 2 2 3 3 3 4 3 2 2 2 5 7 8 9
13 13 13 13 12 12 13 12 13 13 14 14 14 14 14 13 13 13 10 7 5 2 3 4 4 3 5 4 2 2 2 3 3 3 4 3 3 3 3 4 5 11 11
14 13 13 13 13 13 13 13 14 14 14 15 15 15 15 15 14 14 13 13 14 10 8 10 11 10 11 11 11 10 4 3 3 4 4 4 4 3 3 5 10 11 11
13 13 13 13 14 14 13 14 14 15 16 16 16 16 16 16 15 15 15 15 15 16 16 13 12 11 11 12 13 13 15 14 12 4 3 3 3 3 4 6 8 9 10
14 14 13 14 14 14 14 14 15 15 16 17 17 17 16 16 15 16 15 16 16 17 17 16 15 15 14 12 13 15 16 16 16 15 14 15 15 12 6 4 6 12 14
14 14 14 15 16 15 16 16 15 16 17 17 17 18 17 17 15 16 17 17 17 17 17 17 16 16 15 14 15 16 17 18 15 15 15 15 14 13 11 9 12 12 15
13 14 14 14 16 17 17 17 17 17 18 18 18 18 17 17 15 15 16 18 19 18 18 18 16 17 16 16 17 17 18 19 18 17 17 16 16 16 15 13 10 10 15
12 14 14 15 15 16 16 17 17 17 18 19 19 18 18 18 17 15 15 17 18 19 19 18 18 17 17 16 17 18 19 18 18 18 18 18 18 17 16 16 15 12 14
14 13 14 14 14 15 16 16 16 16 17 18 18 18 17 17 17 16 16 16 17 19 19 18 18 17 17 17 18 18 18 19 18 19 19 19 19 18 17 16 16 15 15
13 13 13 13 14 14 15 15 15 15 16 16 17 17 17 16 17 16 16 17 18 19 18 18 18 18 18 18 17 18 19 19 19 20 20 20 19 18 17 17 16 16 16
13 13 13 13 14 13 14 14 15 16 16 16 17 17 17 16 16 16 16 17 18 18 19 19 19 19 19 19 19 18 18 19 19 20 20 20 19 18 18 18 18 17 18
13 13 13 13 14 14 14 14 15 15 15 16 15 16 17 17 15 15 16 17 17 18 19 19 20 20 21 20 20 20 19 19 20 20 20 20 20 19 19 18 18 18 19
14 14 14 14 14 14 15 15 13 14 14 14 13 14 16 15 14 14 14 15 15 16 19 20 20 21 21 21 21 21 20 20 19 19 20 20 20 21 20 19 19 19 20
15 14 15 15 15 16 16 17 19 18 15 15 15 14 15 15 16 15 16 16 16 17 19 20 20 20 20 20 21 21 21 20 19 20 20 20 20 20 20 20 20 19 20
18 18 18 18 18 19 20 20 22 22 22 22 19 16 16 16 17 17 17 18 21 20 20 21 21 20 20 20 20 20 20 21 20 20 21 21 20 20 20 21 21 21 21
19 21 21 21 19 20 19 20 21 23 25 26 25 22 22 17 18 18 19 23 23 23 21 22 22 22 22 21 21 20 20 20 21 22 22 22 22 21 21 20 21 21 21
18 18 19 19 19 19 19 19 19 20 20 20 23 24 22 22 25 25 25 28 25 24 23 22 23 23 24 23 23 23 23 23 22 21 21 21 22 22 22 22 21 21 22
19 18 21 19 19 20 20 20 20 20 21 20 19 20 23 22 25 26 24 26 26 25 26 24 25 26 25 26 24 25 25 26 25 24 23 21 21 21 21 22 22 22 22
19 18 18 19 19 21 20 19 21 21 21 21 22 20 22 21 23 25 26 29 29 26 25 27 26 25 24 27 28 32 29 28 27 26 25 23 22 22 22 21 21 22 21
20 21 20 19 21 22 23 22 24 26 25 27 25 23 23 25 23 23 23 28 26 27 27 27 29 27 27 30 30 29 30 30 29 26 26 24 23 23 23 23 23 23 23
21 23 20 21 22 22 24 24 23 22 23 25 31 29 28 27 28 27 26 27 28 30 31 29 27 27 27 30 32 28 26 29 28 24 24 24 22 22 24 23 24 25 25
24 24 24 25 27 27 27 25 23 24 24 23 22 22 24 26 25 28 28 25 24 28 26 27 27 27 28 28 28 28 30 28 27 25 23 23 23 24 24 24 24 23 24
23 24 25 25 26 27 27 28 28 27 25 23 22 20 20 20 20 23 24 25 24 24 25 25 25 24 26 26 25 25 28 28 27 27 27 23 24 24 24 27 26 25 24

GFSGL_con_lsi_117.txt.gz
Lid_Strength_Index
13 13 12 11 11 12 12 12 13 12 12 12 11 10 10 10 9 9 8 3 4 2 2 2 2 2 2 2 2 2 2 3 5 4 3 3 2 1 1 1 1 1 3
13 13 12 12 12 12 13 13 13 14 13 13 12 12 11 11 10 10 11 9 3 2 2 2 2 2 2 2 2 2 2 2 3 5 4 4 2 2 2 2 2 1 1
13 13 13 12 12 12 13 13 13 13 13 13 13 13 12 11 12 11 11 11 9 3 2 2 2 2 3 2 2 2 2 2 2 3 4 3 3 2 2 2 2 2 2
13 13 14 13 13 13 13 13 14 14 14 14 13 13 13 12 12 12 12 10 7 5 2 2 2 2 2 2 2 2 2 3 3 3 3 4 3 2 2 4 6 6 7
13 14 14 13 14 13 13 14 15 15 14 14 14 14 13 13 13 13 12 12 11 11 11 8 5 6 5 4 2 3 3 3 3 4 4 4 4 3 4 3 4 9 10
14 14 14 14 14 15 14 15 15 16 16 15 15 15 14 14 13 14 14 14 14 14 14 14 13 12 10 9 9 8 5 3 4 4 4 4 4 3 3 4 9 9 9
14 15 15 16 16 16 15 15 16 16 16 17 17 16 15 14 13 14 15 15 16 16 16 15 15 15 14 13 13 13 13 13 10 2 3 3 3 3 3 6 8 8 8
14 14 14 15 16 16 17 17 17 17 18 18 17 17 16 15 14 14 15 16 17 17 17 16 16 16 16 14 14 15 16 15 16 14 7 14 13 11 5 5 5 10 14
13 14 14 15 16 17 18 18 18 17 18 18 17 17 17 16 14 14 16 17 18 18 17 17 17 17 16 15 15 15 16 17 16 15 15 15 15 15 12 9 12 11 15
14 14 14 14 16 18 18 19 18 18 18 17 17 17 16 17 15 15 16 17 18 18 18 18 17 17 16 16 18 18 18 19 19 18 17 17 17 16 15 14 10 9 15
13 14 15 15 16 17 17 17 17 18 18 18 18 17 17 17 17 16 16 18 19 19 19 19 18 17 17 17 17 18 19 19 19 19 19 19 18 18 16 16 15 13 14
14 14 15 15 14 14 15 15 15 16 16 16 17 17 16 16 15 15 16 16 17 20 20 19 19 18 17 17 18 17 18 19 19 19 20 20 20 19 17 16 16 15 14
13 14 14 14 14 14 15 16 16 15 16 16 17 17 17 15 15 15 15 16 17 19 19 19 18 19 19 19 18 18 19 19 19 20 21 21 20 19 17 17 16 15 15
13 13 13 14 14 14 14 15 16 16 16 16 17 18 17 17 16 15 16 17 17 18 19 20 20 20 20 20 20 20 19 19 20 20 20 20 19 19 19 18 17 17 17
13 14 14 14 15 15 14 16 16 16 15 16 17 18 18 19 17 15 16 17 17 18 19 19 20 21 21 21 21 21 21 20 21 20 20 20 20 20 20 19 18 18 19
14 15 15 15 16 16 16 17 15 15 15 15 15 16 18 16 16 16 16 16 17 17 20 21 21 21 21 21 22 22 21 21 21 21 21 21 21 21 20 19 19 20 20
16 16 16 16 17 17 18 19 21 19 16 16 16 16 16 17 17 17 17 18 18 19 22 23 23 23 22 21 21 21 22 21 21 21 21 22 21 21 21 21 20 20 20
21 20 20 20 21 22 24 24 25 25 28 25 20 17 17 17 17 18 19 20 23 22 23 24 24 24 23 22 22 22 22 22 22 22 22 22 22 21 21 21 21 21 21
20 22 24 25 25 23 22 23 22 22 22 23 25 22 23 18 18 19 20 25 25 25 24 24 24 24 24 24 24 24 24 24 24 23 22 21 22 22 21 21 21 21 21
21 20 21 20 21 21 20 21 21 21 22 22 21 21 22 23 28 27 28 32 27 25 25 25 25 25 26 26 26 27 26 26 25 24 24 23 22 21 22 22 22 22 21
20 19 21 19 20 21 21 21 21 22 23 23 23 25 24 23 25 26 26 28 28 26 29 26 27 28 27 28 28 30 29 30 28 27 25 24 23 23 21 21 21 22 21
19 19 19 20 20 21 22 21 22 23 22 23 24 24 25 26 25 26 26 29 30 28 27 29 28 27 27 29 30 33 30 31 30 29 27 25 24 23 23 23 23 23 21
20 21 21 21 21 24 24 22 24 24 24 25 25 24 24 27 27 25 26 32 28 28 28 29 31 28 28 33 33 31 30 28 27 28 26 25 23 25 27 26 25 24 23
22 24 22 24 25 25 28 29 27 26 26 26 25 24 24 25 26 28 26 27 29 31 32 32 29 27 26 30 33 28 26 27 27 25 24 23 22 22 24 24 25 26 26
26 27 28 28 31 33 32 30 31 31 30 29 26 25 24 24 23 23 23 22 22 25 24 27 28 25 26 25 27 26 28 27 28 28 24 22 23 24 26 26 27 25 26
26 26 28 29 31 32 32 34 34 34 33 31 28 26 27 24 23 23 23 22 22 22 22 22 22 22 23 24 23 23 28 28 28 28 30 24 24 23 23 26 27 27 26

GFSGL_con_lsi_120.txt.gz
Lid_Strength_Index
13 12 13 13 13 13 12 12 12 12 12 12 12 12 12 12 11 12 12 10 9 8 4 3 2 1 2 2 2 2 2 3 5 3 2 2 1 1 1 2 1 2 2
13 13 13 13 13 13 13 13 13 13 12 12 12 13 13 13 12 12 12 11 10 9 7 4 2 2 2 2 2 2 2 2 3 5 3 3 2 2 1 2 1 1 1
13 14 14 14 14 14 13 14 14 14 13 13 13 13 13 13 13 13 12 11 10 9 9 7 3 2 2 2 2 2 2 2 2 3 4 3 3 1 2 2 1 1 2
13 14 14 14 14 14 14 14 14 14 14 14 14 13 13 13 13 13 12 12 12 12 11 11 10 11 10 4 2 2 2 3 3 3 3 3 3 2 2 3 4 4 4
14 15 15 15 15 15 15 15 15 15 15 15 15 14 13 13 13 13 13 13 13 13 13 13 12 12 12 12 8 2 2 3 3 4 4 4 4 3 4 3 4 7 8
15 15 15 15 16 16 16 16 17 17 16 16 16 15 15 14 13 13 13 14 14 15 15 15 14 13 13 12 12 11 10 3 4 4 4 4 4 3 3 3 7 8 7
14 14 15 15 16 16 16 17 17 18 18 17 16 16 15 14 13 13 14 15 15 16 16 16 16 15 15 14 13 14 15 14 14 9 4 3 3 3 2 3 6 4 5
14 14 14 15 16 16 17 17 18 18 18 17 17 16 16 15 13 14 14 16 16 16 17 16 17 17 16 16 15 15 16 16 16 16 15 15 12 3 2 2 4 8 14
14 14 14 15 16 17 18 19 18 18 18 18 16 16 17 17 14 14 16 16 17 17 17 17 17 17 16 16 17 17 17 17 16 15 15 15 15 14 11 6 10 10 15
14 14 14 14 16 18 18 18 18 21 19 18 18 17 16 17 15 15 16 17 18 18 18 18 17 17 16 16 18 19 20 19 18 16 16 16 16 16 15 15 8 8 15
13 14 14 14 14 16 16 16 16 18 17 17 18 19 18 16 17 15 15 18 19 19 19 20 19 17 17 17 17 19 19 18 19 18 17 17 17 18 18 17 16 14 14
14 14 14 14 13 14 16 16 16 16 17 18 18 18 18 17 15 15 15 16 17 20 20 19 19 18 18 18 18 18 18 19 19 19 19 20 20 19 18 18 17 17 16
13 14 14 14 14 15 16 17 17 16 17 18 19 19 19 18 17 15 15 15 16 19 18 18 18 18 18 19 18 19 20 20 20 21 21 21 20 19 18 18 17 17 16
13 14 14 14 15 15 15 16 17 17 17 18 19 20 19 19 18 17 17 18 18 19 19 19 19 18 20 20 21 20 21 21 21 21 21 20 19 19 19 19 19 18 18
14 14 15 15 15 16 17 16 17 16 16 18 19 19 20 20 19 17 18 19 19 20 21 21 22 22 22 21 21 21 22 22 22 22 22 21 21 20 20 19 19 19 20
15 15 16 16 17 17 17 18 15 15 15 15 15 17 19 17 17 17 17 18 18 19 23 24 24 24 23 23 23 23 22 23 23 22 22 22 22 21 21 20 20 20 21
16 16 17 17 18 19 19 20 22 20 17 16 16 16 16 17 17 17 18 19 19 21 24 25 26 25 25 24 24 24 24 23 22 23 23 23 22 21 21 21 21 20 21
21 20 21 22 22 23 27 27 28 27 28 25 21 17 17 17 17 18 19 21 24 24 24 25 26 26 25 25 26 26 25 25 24 23 23 23 23 22 21 21 21 22 21
24 25 26 25 25 25 24 24 25 25 25 24 24 21 23 18 18 19 21 27 26 26 25 25 26 26 26 27 28 28 27 27 26 26 25 24 23 22 22 21 21 21 21
23 21 22 22 22 22 22 22 22 23 23 24 23 23 22 23 26 26 28 30 27 26 26 25 25 26 27 27 28 29 28 28 28 27 26 25 24 22 22 21 21 21 21
21 20 22 20 21 21 22 22 22 23 23 23 24 26 24 23 24 26 25 26 27 26 27 27 26 27 27 27 27 30 28 29 28 28 28 26 25 24 23 22 21 20 19
20 20 20 20 21 23 22 22 24 24 24 25 25 24 25 25 25 25 24 26 28 27 26 26 27 26 27 29 29 31 28 28 28 28 28 27 25 23 24 24 23 23 21
21 22 22 23 23 25 26 25 26 27 27 27 26 25 25 25 26 26 27 27 26 26 27 28 28 26 25 28 29 28 27 27 27 27 26 25 24 23 23 24 24 24 24
22 24 23 25 27 27 32 33 31 30 29 29 31 28 28 27 26 26 25 25 24 24 24 25 24 24 23 24 26 27 25 27 26 25 27 24 23 22 22 22 22 24 24
27 28 29 30 33 36 36 34 36 36 36 34 33 31 29 28 28 28 27 26 25 24 23 23 23 23 23 23 23 23 27 28 27 28 25 24 24 23 22 23 24 23 23
27 28 30 31 34 35 38 40 41 41 40 38 37 36 35 33 30 31 29 27 27 26 25 24 24 24 24 22 21 19 23 26 26 27 28 24 24 24 23 22 23 23 23

GFSGL_con_lsi_123.txt.gz
Lid_Strength_Index
11 11 12 13 13 13 13 13 13 13 12 12 11 11 11 11 11 12 11 10 11 10 8 7 6 3 2 1 1 2 2 3 5 3 1 0 0 0 0 0 0 -0 0
12 12 12 13 13 13 14 14 13 13 12 13 12 12 11 11 11 12 12 11 11 11 10 10 9 9 5 1 2 2 2 2 3 4 2 2 1 1 0 1 0 0 0
12 12 13 13 14 14 13 13 13 14 14 13 13 12 12 12 12 12 12 13 13 12 12 11 11 11 12 11 9 2 2 2 2 3 3 2 1 1 1 1 1 1 1
12 13 14 14 14 14 14 14 14 14 14 14 13 13 12 12 12 12 12 13 13 13 13 12 13 13 14 13 12 10 7 2 2 3 3 3 3 2 2 3 3 1 1
13 14 14 13 14 14 14 14 14 14 14 14 14 14 13 13 13 13 13 13 13 13 13 13 13 13 13 13 12 12 12 9 3 3 4 4 3 3 4 2 3 2 3
13 14 14 14 14 14 14 14 14 14 14 14 14 15 14 14 13 13 13 14 14 14 14 14 13 13 13 14 13 13 13 15 15 3 4 4 4 3 2 3 3 6 6
13 13 14 14 14 14 14 14 14 14 15 15 15 15 15 14 14 14 14 13 14 14 15 14 15 14 14 14 15 14 14 14 14 15 13 7 7 3 2 3 3 3 4
12 13 13 14 14 14 15 15 15 14 15 15 15 15 15 14 14 14 14 14 14 14 15 14 15 15 15 15 16 16 16 16 16 15 15 16 15 15 13 3 2 5 12
13 13 14 14 15 15 16 15 15 15 15 15 16 16 15 15 14 14 15 15 15 15 15 15 15 15 15 15 16 18 18 18 16 15 16 15 15 15 15 11 6 8 14
13 13 13 14 15 16 15 15 14 14 14 14 15 15 16 15 15 15 15 16 17 16 16 16 16 16 15 16 17 18 19 19 18 18 18 17 16 17 16 16 15 11 12
12 13 13 13 14 14 14 13 13 14 15 15 16 15 15 15 15 15 15 16 17 17 17 17 17 17 17 17 17 19 19 18 18 18 19 19 18 18 18 17 16 16 16
12 13 12 13 13 13 14 14 14 15 16 16 16 16 15 15 15 15 15 16 16 17 17 17 16 17 18 18 18 19 19 20 19 19 19 20 20 19 18 18 16 16 16
12 13 13 13 13 14 14 15 15 15 16 16 16 17 16 15 15 16 16 16 17 18 17 18 18 17 18 18 18 19 20 21 21 21 21 20 19 19 18 18 17 17 16
13 13 13 13 14 14 14 14 15 15 16 17 17 17 17 17 16 16 16 16 18 19 19 19 19 19 19 19 19 19 20 21 21 21 22 21 19 18 19 18 19 19 18
13 13 14 14 15 15 15 15 15 15 15 16 16 17 17 18 17 17 17 17 18 19 19 20 20 20 21 21 21 21 20 20 21 21 21 21 21 19 19 18 18 19 20
14 14 14 15 15 15 16 16 15 15 15 16 16 16 16 16 17 17 18 18 19 19 20 21 22 22 22 22 22 22 21 22 21 20 21 21 22 21 20 19 19 19 20
15 15 15 16 16 17 17 17 18 17 17 17 17 16 17 17 17 18 18 19 19 20 21 22 23 23 23 23 23 23 23 22 22 21 21 21 20 21 20 20 20 20 20
17 18 16 16 16 17 17 18 18 19 19 19 18 18 17 17 18 18 19 19 20 20 21 22 22 22 23 23 24 24 24 23 23 23 22 21 21 20 20 21 20 20 20
16 17 17 17 17 17 17 17 18 18 19 19 18 18 18 18 18 18 19 20 21 21 21 21 21 22 22 22 23 23 23 24 24 24 23 23 22 21 20 20 20 21 20
17 18 17 16 16 17 17 18 19 19 19 19 20 21 19 18 19 19 19 19 20 20 20 21 21 21 21 22 22 23 23 23 23 24 23 23 22 21 20 20 20 20 20
16 16 18 17 18 18 19 19 20 20 21 21 21 22 23 20 21 20 21 21 21 21 21 20 20 20 21 21 22 22 22 22 23 23 23 22 22 21 20 19 19 19 19
16 17 17 18 19 20 20 20 21 21 22 22 22 22 23 21 21 22 22 22 22 21 22 22 21 21 20 21 22 22 22 23 23 23 23 23 22 21 21 20 19 19 19
17 18 19 19 20 22 22 22 23 23 23 23 23 23 23 23 23 23 23 23 23 22 22 22 22 22 21 21 20 20 20 21 21 21 21 21 20 20 20 20 20 20 20
19 19 20 21 21 22 23 24 24 26 25 25 25 24 25 24 25 25 25 25 24 24 23 23 22 22 21 21 19 19 18 19 19 20 21 20 20 20 20 19 19 19 19
20 21 22 22 23 24 25 25 26 26 26 27 26 26 26 26 26 26 26 26 26 25 24 23 22 23 22 22 21 21 20 20 21 22 19 19 20 20 20 20 19 18 18
22 22 23 23 24 25 26 26 27 28 28 28 27 27 27 27 27 27 27 27 26 25 25 24 23 24 24 22 21 22 21 19 19 21 19 17 18 18 19 19 19 18 18

GFSGL_con_lsi_129.txt.gz
Lid_Strength_Index
8 8 8 8 8 9 10 10 10 11 11 12 12 11 11 11 11 11 10 11 11 11 11 11 12 12 12 10 9 9 9 7 6 3 1 1 1 1 0 0 0 0 0
8 8 8 8 8 9 9 10 10 11 12 12 12 11 11 12 12 11 11 11 11 12 12 12 12 13 12 11 11 9 10 8 8 8 2 2 2 1 0 1 0 -0 -0
8 7 8 8 8 9 9 9 9 11 11 12 12 12 12 12 12 11 10 11 11 11 12 12 13 13 13 13 12 12 11 11 10 9 7 4 1 1 1 1 1 0 0
8 8 9 9 9 9 9 9 9 10 11 11 11 11 12 12 13 12 11 11 11 11 11 11 12 13 13 13 13 13 13 14 13 13 10 8 8 7 5 2 2 1 1
8 9 9 9 9 9 10 10 10 10 10 11 12 12 12 13 14 13 12 12 12 12 12 12 12 13 13 12 12 13 14 15 15 14 14 13 12 13 13 12 12 10 1
10 10 9 9 9 10 10 10 10 11 11 11 11 11 13 13 14 13 12 12 13 13 14 13 13 13 13 12 12 13 13 14 15 15 15 16 16 15 15 14 13 13 10
9 9 9 10 10 11 10 11 11 12 12 12 12 11 12 13 14 13 12 11 12 13 14 14 14 14 14 13 13 13 13 14 14 14 15 15 16 15 15 16 14 14 13
9 10 10 10 11 10 11 12 12 12 13 13 13 13 13 14 14 14 13 12 12 13 14 15 15 15 15 15 14 14 14 14 14 13 14 14 14 14 14 15 14 15 12
11 12 11 11 12 12 13 13 12 12 13 13 13 14 14 14 14 14 13 11 12 13 13 15 16 16 16 15 16 16 16 15 13 13 13 14 14 14 14 14 16 16 17
11 11 11 12 12 13 13 13 12 11 12 11 12 12 13 14 14 14 15 14 13 13 13 13 15 15 15 15 16 16 18 16 15 14 13 14 14 14 13 14 15 16 17
11 11 11 11 12 11 12 11 11 11 11 11 11 11 12 12 13 14 14 15 14 14 15 15 14 15 15 15 15 16 16 14 14 14 14 15 15 14 14 14 14 15 16
11 12 12 12 11 11 11 11 11 11 11 12 12 12 11 12 14 14 14 15 15 15 15 15 15 15 15 15 15 15 15 15 14 14 15 15 15 16 15 15 14 14 14
12 13 12 11 11 11 11 11 11 11 12 12 13 13 14 13 14 15 15 15 15 15 14 15 15 15 15 15 15 16 16 16 16 16 16 16 15 14 13 14 15 15 14
11 11 11 11 11 11 11 12 13 13 13 13 14 15 15 15 16 15 15 15 15 15 14 14 15 15 15 15 15 15 15 16 16 16 16 15 15 15 15 14 14 15 16
11 11 11 11 11 13 14 13 13 15 15 15 15 14 16 17 16 16 16 16 15 15 14 14 15 15 16 15 16 16 16 16 17 17 17 17 17 16 16 14 15 15 16
11 11 11 11 12 12 12 14 15 15 15 15 15 15 15 16 16 16 16 16 15 15 15 16 16 16 16 16 17 17 16 17 17 17 17 17 18 18 17 16 15 16 17
11 12 12 12 12 12 12 13 13 15 16 16 16 16 16 16 16 16 16 15 15 15 16 16 17 16 17 17 17 17 18 17 17 17 18 18 18 18 17 17 17 17 17
12 12 11 12 12 12 13 13 13 14 14 14 16 15 16 16 16 16 16 15 16 16 17 17 17 17 17 18 18 18 18 18 18 18 18 19 19 19 18 18 18 18 18
12 12 12 12 12 13 12 13 13 13 14 14 14 15 16 15 16 16 16 17 17 18 18 18 18 18 18 18 18 18 18 18 18 19 19 19 19 19 19 19 19 19 19
13 13 12 12 12 13 13 14 14 14 14 15 15 18 17 16 16 17 16 17 18 18 18 19 18 18 19 19 18 18 18 18 19 19 19 19 19 19 20 20 20 20 19
12 13 14 13 13 14 14 15 15 15 16 16 16 19 20 18 18 18 18 19 19 19 19 19 19 19 19 20 20 20 20 19 19 19 19 19 20 20 19 19 19 19 19
12 13 13 14 14 15 15 15 15 16 17 17 17 18 19 17 18 18 19 19 19 19 19 20 20 20 20 21 21 21 20 21 20 20 20 19 19 19 19 19 19 20 19
13 14 14 15 16 17 16 16 17 17 17 17 17 18 18 18 19 19 20 20 20 20 20 20 21 21 21 21 21 20 21 21 20 20 19 18 18 17 17 17 18 19 19
13 14 15 15 16 16 16 17 17 20 19 18 18 18 19 19 19 20 20 20 21 21 21 21 21 21 22 22 20 19 20 20 19 19 19 18 18 17 17 17 17 18 18
14 15 15 16 17 17 17 17 17 17 17 18 18 19 19 19 20 20 20 21 22 22 22 21 21 21 21 21 20 21 21 20 20 20 18 18 17 17 17 17 18 17 18
15 16 16 16 17 17 17 17 18 18 18 19 19 19 20 20 20 21 21 22 23 23 21 21 21 21 20 19 19 20 20 20 20 19 18 16 15 15 15 16 17 16 17

GFSGL_con_lsi_132.txt.gz
Lid_Strength_Index
9 8 8 8 8 8 9 9 9 9 9 10 10 11 12 12 12 11 11 11 12 12 11 12 12 11 11 11 11 10 10 9 11 9 7 5 4 2 1 -0 0 0 2
8 8 8 8 8 8 9 9 8 9 9 9 10 11 12 13 13 13 12 11 12 12 12 12 13 12 12 12 11 12 12 11 11 11 9 7 6 4 7 6 1 -0 0
8 7 8 9 9 9 9 9 9 10 10 10 10 12 13 14 14 13 12 12 13 13 12 13 14 13 13 12 12 13 13 12 11 11 10 10 9 10 10 9 9 8 7
8 8 9 9 9 9 9 10 10 10 11 10 11 12 14 14 14 14 12 13 13 13 13 13 14 14 14 13 13 13 13 14 13 13 13 12 12 12 12 13 13 11 12
9 9 10 9 10 10 10 10 10 10 11 10 11 13 14 15 15 14 13 14 14 15 15 15 15 14 14 13 13 13 14 14 14 13 14 15 15 15 15 15 14 14 12
9 10 10 10 11 10 10 10 11 11 12 12 12 13 14 14 13 13 12 13 14 15 17 16 15 15 15 14 13 13 14 15 15 15 15 15 16 15 15 15 16 15 15
10 10 11 10 10 11 11 11 11 12 13 14 14 13 15 15 14 13 12 13 14 15 17 17 17 16 16 16 15 15 14 14 14 14 15 16 15 14 15 15 15 16 15
11 12 10 10 11 11 12 12 12 12 13 14 15 15 15 14 14 13 13 13 14 15 16 17 18 18 16 17 17 17 17 16 15 14 14 15 14 13 14 14 14 14 14
12 11 12 12 12 13 14 13 13 12 13 14 14 15 16 16 13 14 15 14 15 16 16 17 17 17 14 14 18 18 19 18 15 14 13 14 14 14 13 15 16 16 17
11 11 12 12 13 16 13 14 13 12 13 12 13 14 14 16 13 13 15 17 16 17 17 16 14 15 14 14 18 18 19 18 17 17 16 16 16 16 14 16 16 17 17
11 11 12 12 12 12 12 12 13 13 12 12 13 14 15 15 15 13 14 17 16 16 17 17 16 14 14 14 14 17 17 17 17 17 17 17 17 17 16 15 16 16 17
12 12 13 12 12 11 12 12 12 12 13 13 13 14 15 16 14 14 14 15 15 17 17 17 16 14 14 14 16 15 16 18 18 18 19 19 19 18 17 16 15 16 15
13 14 13 12 11 11 12 12 12 12 13 14 15 16 17 17 17 15 15 15 15 17 16 15 15 15 15 16 15 15 18 19 19 20 20 20 19 18 17 16 16 16 16
13 12 12 12 12 12 13 14 15 15 15 15 15 17 17 18 17 17 17 17 16 16 17 18 18 16 18 19 18 17 18 19 20 20 20 20 19 19 19 18 18 17 18
12 12 13 13 14 14 14 14 15 16 15 17 17 17 18 19 17 15 15 17 17 16 18 19 19 19 19 19 19 19 19 19 20 20 20 21 21 20 20 18 19 19 20
12 12 12 12 13 14 15 16 14 15 15 15 15 16 17 16 15 15 14 14 14 14 18 19 19 19 20 20 20 20 20 20 20 20 20 21 21 21 21 20 20 20 21
12 13 13 12 12 13 13 14 17 16 15 15 15 15 15 15 15 15 15 14 15 16 19 19 20 20 20 20 20 20 21 20 19 20 21 21 21 21 21 21 21 21 22
13 12 12 12 13 13 14 14 14 15 17 17 15 15 15 14 15 15 15 16 19 18 19 20 21 20 20 20 21 21 21 20 20 21 21 21 22 22 22 22 22 22 22
13 12 12 13 13 14 13 13 14 15 15 16 16 18 18 15 15 16 16 20 21 21 20 20 20 20 20 21 22 22 22 22 22 22 22 22 23 22 22 22 23 23 23
13 14 13 13 13 13 14 14 15 15 16 16 18 20 19 18 19 20 20 21 21 21 21 21 21 21 22 22 23 23 23 23 23 23 23 23 23 23 23 22 23 23 23
14 13 15 13 14 14 15 15 15 16 17 17 20 21 21 19 19 20 20 21 21 21 22 22 22 22 22 23 23 24 24 24 24 24 24 24 23 23 22 21 22 22 22
14 13 13 14 15 15 16 16 16 17 17 18 18 20 21 19 20 20 21 22 22 22 21 22 23 22 23 24 24 25 23 25 25 25 24 23 23 22 21 20 20 21 21
13 14 14 15 16 18 16 17 17 18 18 18 19 19 19 20 21 21 21 23 22 23 23 23 23 23 23 24 24 22 23 24 24 23 24 24 22 21 20 19 20 20 21
14 14 15 16 16 16 17 17 20 21 19 19 19 20 21 21 21 23 22 24 25 26 25 25 23 24 24 25 23 22 23 23 23 22 23 23 22 21 20 19 19 20 21
14 15 16 17 17 18 19 18 19 19 19 20 20 21 21 21 22 23 23 25 27 27 25 25 25 24 24 24 24 24 25 24 23 24 22 21 21 20 18 18 19 19 19
15 16 16 16 17 17 17 18 19 20 21 21 21 21 22 22 23 25 24 26 27 26 26 25 24 24 24 22 23 22 25 24 24 23 21 20 20 19 17 18 18 18 18

GFSGL_con_lsi_138.txt.gz
Lid_Strength_Index
10 10 10 10 11 11 12 11 11 11 11 13 13 13 12 11 11 11 11 11 12 14 15 15 15 14 14 13 13 13 13 12 13 12 10 10 11 11 11 11 10 8 9
10 10 12 12 12 12 12 12 11 12 12 12 13 13 12 12 12 12 13 13 14 15 16 17 16 15 15 14 14 15 14 12 13 13 12 12 12 12 12 12 11 10 10
10 12 12 12 12 13 12 12 12 12 13 14 14 14 13 12 12 12 14 15 16 16 16 17 17 16 16 16 15 15 15 14 13 14 15 13 13 13 13 12 12 12 11
11 12 12 13 12 12 12 12 12 13 14 15 14 13 12 11 12 13 14 16 16 17 16 16 16 17 17 16 16 16 16 15 14 15 16 15 15 14 15 15 15 14 12
11 12 13 12 12 12 13 13 13 13 14 14 14 14 12 11 12 14 15 16 16 17 17 16 16 16 15 16 17 17 17 17 16 17 17 17 17 17 18 17 17 16 13
12 12 12 12 13 13 13 14 14 14 14 14 14 14 13 12 11 12 14 15 15 16 17 16 16 16 17 17 16 16 16 18 18 19 19 19 18 17 17 17 17 18 17
11 12 12 12 13 13 14 14 15 15 15 16 15 14 14 13 13 13 14 15 16 16 17 16 16 16 17 17 17 17 17 16 16 19 20 19 19 18 18 18 17 17 18
12 12 13 13 13 14 14 15 16 17 20 20 18 17 15 14 13 13 14 16 17 17 16 16 17 16 16 18 18 19 20 19 18 17 19 19 18 17 18 18 18 18 18
12 13 13 13 14 15 17 18 18 17 20 21 20 17 18 17 13 13 15 17 18 18 16 16 16 16 15 15 18 20 21 21 18 17 17 17 17 16 16 18 20 19 21
13 13 13 14 16 18 20 17 18 19 20 18 19 20 15 19 13 13 16 19 19 18 18 17 14 15 14 15 19 20 22 22 22 22 22 21 20 20 17 20 20 20 20
13 13 13 14 14 15 17 19 15 17 20 21 21 22 21 17 16 13 13 21 21 18 18 18 17 14 14 15 16 19 20 22 22 22 23 23 22 22 21 21 21 21 22
13 13 14 14 13 13 16 15 14 16 20 23 23 22 22 22 14 13 13 14 15 19 23 21 18 15 16 16 17 17 18 21 22 23 24 24 24 23 22 22 22 22 23
13 15 14 13 13 13 15 15 16 16 18 18 19 23 22 21 22 15 14 14 15 20 20 16 16 17 18 20 17 18 21 22 23 24 25 25 24 23 22 22 21 21 22
14 14 13 14 15 15 15 15 16 17 17 17 19 22 23 21 21 20 20 20 18 20 22 22 22 19 25 26 24 22 22 23 25 27 27 28 24 23 23 22 23 23 23
13 13 14 15 16 16 17 17 16 18 16 18 21 20 23 23 20 15 17 19 22 21 24 25 27 29 28 25 24 24 23 23 24 24 25 25 25 24 24 22 22 23 24
13 14 15 16 17 17 16 16 14 14 14 14 15 17 20 15 14 14 14 15 16 17 23 28 28 29 27 25 25 26 24 24 24 24 26 26 26 25 25 23 22 24 25
13 14 15 15 16 17 16 16 17 15 14 14 14 14 14 14 14 15 15 16 17 19 25 28 31 29 26 25 25 25 25 25 24 26 27 27 27 26 25 24 24 23 25
14 14 15 16 17 17 18 19 20 21 23 23 17 16 14 14 15 16 17 19 23 22 23 24 25 26 25 25 25 26 25 26 27 27 27 28 28 27 26 25 24 25 24
14 15 16 16 16 17 18 18 19 20 22 25 24 21 21 15 16 17 18 26 27 25 24 24 24 25 25 25 30 29 31 29 30 32 29 29 29 27 27 26 24 24 23
15 16 15 15 16 16 17 17 18 18 19 22 23 24 21 21 25 28 30 31 28 25 25 24 24 26 27 27 32 34 31 31 29 29 30 31 30 28 27 26 25 25 23
15 15 16 16 16 16 17 18 18 18 20 21 24 25 22 21 23 24 25 30 28 26 29 26 27 29 30 30 27 30 30 33 30 29 29 28 30 29 26 25 24 23 22
15 15 15 16 16 17 17 18 18 19 20 20 21 23 22 23 23 25 26 30 31 27 26 29 27 27 28 29 30 34 33 36 34 31 29 29 28 27 26 25 25 23 22
15 15 16 17 17 19 19 19 20 20 20 21 21 21 23 25 26 25 27 34 30 32 31 30 32 30 30 33 32 30 31 31 30 31 30 29 27 26 25 25 24 22 22
15 17 17 19 19 20 21 22 22 21 21 22 23 23 24 28 30 31 35 37 35 37 37 35 32 30 30 34 32 30 28 31 31 29 30 29 27 25 25 24 22 21 22
16 17 18 19 19 21 22 22 23 22 22 22 24 24 26 28 29 34 37 36 35 36 33 34 34 32 31 33 31 32 33 31 32 31 30 27 26 26 24 21 21 21 22
17 18 19 19 20 21 20 21 23 22 23 24 26 26 27 28 28 33 36 35 34 34 34 34 32 31 31 29 28 28 31 30 31 29 29 26 26 24 22 22 22 22 21

GFSGL_con_lsi_141.txt.gz
Lid_Strength_Index
12 12 12 13 13 13 13 14 14 14 14 14 14 13 12 11 11 12 13 13 13 15 14 14 14 14 14 14 14 14 14 13 14 12 11 12 13 13 12 11 10 9 9
11 12 12 13 13 14 14 14 15 15 14 14 14 13 12 12 13 14 14 14 15 15 15 15 16 14 15 15 15 15 15 14 15 16 14 14 14 14 13 12 12 11 9
12 13 13 14 14 14 14 14 15 15 15 14 14 13 12 12 14 14 14 14 15 15 15 16 16 15 16 15 16 16 16 15 15 15 16 15 16 15 15 14 13 13 10
12 13 14 14 15 15 15 15 15 15 15 14 14 13 12 13 14 14 15 15 15 15 15 15 16 15 16 16 17 17 17 17 17 17 18 18 18 17 17 17 16 14 13
13 14 14 15 14 14 15 14 14 14 14 14 14 12 11 12 13 14 15 15 16 16 15 15 16 15 15 15 16 16 17 18 19 19 20 20 20 20 20 18 17 16 13
13 14 14 14 14 15 14 14 14 15 15 15 14 13 12 12 13 13 15 16 15 16 16 15 16 16 16 16 16 16 16 18 20 20 21 21 21 20 20 19 19 19 18
13 13 14 14 14 14 15 15 16 17 17 17 16 14 13 13 13 14 14 15 16 16 16 15 16 16 17 17 17 18 17 17 17 19 21 21 21 20 20 20 20 20 19
13 14 14 14 14 14 15 17 18 19 23 23 19 18 14 13 14 14 14 16 17 16 17 16 16 17 16 17 18 19 20 20 18 18 19 20 19 18 20 19 20 19 19
14 14 14 14 15 15 17 19 21 20 21 24 24 20 20 18 14 14 15 17 19 19 16 15 16 17 15 16 19 20 22 23 19 17 17 17 18 17 18 20 21 21 23
14 14 13 14 16 18 19 20 23 24 24 21 22 23 16 19 13 14 17 18 19 18 18 18 14 16 15 16 21 21 23 24 26 25 25 23 22 22 19 22 22 23 23
12 13 13 14 15 16 17 18 21 23 23 25 23 24 22 18 16 13 14 20 21 18 18 19 18 15 15 15 17 20 22 24 25 24 24 24 24 24 23 23 24 24 25
12 13 14 14 13 14 15 16 18 22 24 27 25 23 24 22 14 13 13 15 16 20 23 20 19 17 16 17 18 18 19 23 24 25 25 26 26 25 24 24 27 25 27
14 14 14 13 13 14 15 16 18 20 21 21 21 24 24 22 23 14 14 15 16 20 20 18 18 18 19 21 19 19 22 24 25 27 27 27 26 25 24 23 24 25 26
13 13 13 14 15 14 14 15 17 18 19 18 20 23 24 22 21 20 20 20 19 22 24 25 23 21 27 28 25 25 24 25 27 28 28 28 26 25 25 24 24 24 26
13 13 14 14 15 15 15 16 16 18 17 18 22 21 23 23 19 17 19 22 25 24 26 27 28 29 27 26 26 26 25 26 27 27 28 28 28 27 26 24 24 25 26
13 14 15 15 15 16 16 17 14 15 14 15 15 18 20 16 13 14 14 15 17 19 25 30 32 32 30 27 27 27 26 27 27 27 28 28 28 28 27 25 24 25 26
13 14 15 15 16 17 17 17 18 15 14 14 14 14 14 14 14 14 15 16 18 20 26 29 33 32 29 26 26 26 27 27 26 27 29 29 29 28 27 26 25 26 25
13 13 15 16 17 17 17 18 17 18 21 23 18 16 14 14 15 15 16 19 24 23 24 26 29 28 26 26 26 27 28 28 29 29 29 30 30 28 28 27 26 27 26
13 15 16 17 17 18 18 18 19 20 21 24 24 20 16 15 16 17 19 26 27 26 24 25 27 26 26 26 32 32 35 33 34 36 31 31 34 29 29 27 26 26 26
14 15 15 16 17 17 17 18 18 19 21 22 23 24 21 22 29 32 32 32 29 25 26 25 25 26 28 28 33 37 33 34 31 30 33 36 37 30 29 27 27 27 25
14 15 15 15 15 16 16 17 18 18 20 21 23 26 23 23 24 26 26 31 29 27 29 26 28 30 31 31 28 32 33 34 32 30 30 30 35 31 28 27 26 25 24
14 14 14 15 15 16 16 17 17 19 20 21 22 24 22 23 23 24 25 28 29 28 27 29 28 27 29 29 30 37 35 38 36 33 33 31 30 29 28 27 27 26 24
14 15 15 16 16 17 17 18 19 20 21 21 21 22 22 24 24 24 25 34 31 32 31 31 33 31 31 34 34 32 33 32 31 34 35 33 29 28 28 27 26 25 23
15 16 16 17 17 18 19 20 20 20 20 21 22 23 23 25 28 29 30 36 36 38 38 36 32 31 31 35 35 31 29 33 32 30 34 32 29 27 26 26 24 22 23
16 17 17 18 18 19 20 20 21 21 21 22 23 23 24 25 27 30 33 37 35 37 34 36 35 33 33 34 33 32 34 32 34 33 32 30 29 28 27 25 24 23 23
17 17 18 18 20 20 21 21 22 21 22 22 23 24 24 25 27 31 34 35 35 35 35 34 33 33 33 30 29 29 33 33 34 33 33 28 29 29 28 27 26 24 23

GFSGL_con_lsi_144.txt.gz
Lid_Strength_Index
13 13 13 14 14 14 15 15 16 16 15 15 15 14 14 14 14 14 13 13 14 14 14 14 14 12 12 13 13 13 14 13 15 13 13 13 15 15 14 13 11 10 10
12 12 14 14 14 15 15 16 16 16 16 15 14 14 14 15 15 14 14 15 15 14 14 14 14 13 14 14 14 14 14 14 15 17 15 16 17 16 15 15 13 12 12
12 13 14 14 15 15 16 16 17 17 16 15 14 14 14 15 15 15 15 14 14 14 14 14 14 15 15 15 15 15 15 15 16 17 18 17 18 18 17 16 14 13 12
13 13 15 15 16 16 15 16 16 16 16 16 15 13 14 14 15 15 14 14 14 14 14 15 15 15 15 15 16 17 17 17 17 18 19 19 19 18 18 18 17 15 16
13 14 15 15 15 15 15 16 16 16 16 15 14 12 12 13 14 15 14 15 15 14 15 15 15 14 14 15 16 17 18 18 18 19 20 20 20 21 21 19 19 17 16
13 14 14 15 15 16 15 16 16 16 16 15 13 13 13 14 13 13 14 15 15 15 15 15 15 16 16 16 16 15 16 19 20 20 20 21 21 21 20 20 20 19 18
13 14 14 15 15 16 16 17 17 17 17 17 16 14 15 14 13 13 14 15 16 16 15 16 17 16 16 18 18 18 17 16 17 19 21 21 21 20 21 20 20 20 19
14 14 14 15 16 16 17 19 19 20 23 23 20 18 15 14 13 13 14 16 16 16 16 16 17 17 17 17 18 20 20 19 17 18 19 19 18 18 20 19 19 19 17
14 14 15 15 16 17 20 20 20 20 22 26 25 21 19 17 14 14 16 17 18 18 16 15 16 17 16 17 20 20 22 22 19 18 17 18 18 17 18 20 21 21 21
14 14 15 15 17 19 20 21 24 24 24 21 22 24 16 22 14 14 17 17 19 18 18 17 14 16 16 17 21 22 24 24 24 24 23 23 22 22 19 22 23 23 24
13 14 15 15 17 17 19 20 23 24 24 26 25 26 22 18 16 14 15 19 19 18 19 19 17 15 16 16 18 21 22 24 24 25 25 24 24 24 23 23 23 24 24
13 14 15 15 14 15 18 19 20 23 25 27 26 23 24 23 13 13 14 15 17 20 21 20 19 16 16 17 19 19 21 24 26 27 27 27 27 26 25 24 24 23 24
13 14 14 14 14 15 17 19 20 21 21 21 21 25 25 23 20 13 14 15 16 21 22 18 18 19 20 22 20 21 25 26 27 28 28 28 27 26 25 23 23 23 23
13 14 13 14 14 15 16 17 18 19 19 19 21 23 25 24 22 21 21 21 19 23 25 26 24 23 28 28 26 25 26 27 28 29 29 29 26 25 25 24 24 24 25
13 13 13 14 14 15 15 17 17 18 17 19 22 20 21 24 23 19 21 23 25 24 27 28 28 29 28 27 28 27 26 27 28 28 29 28 27 26 26 24 24 24 25
13 13 13 14 15 16 16 16 14 15 15 15 15 17 19 16 14 15 15 16 18 19 26 29 31 31 29 28 28 28 27 28 27 27 28 28 28 27 27 25 24 25 26
13 13 14 15 16 16 16 16 18 16 14 14 14 14 14 13 14 14 15 17 18 21 27 29 32 32 28 26 26 27 28 27 27 27 29 29 29 27 27 26 25 25 25
13 14 15 15 16 16 16 17 17 18 19 21 16 15 13 14 14 15 16 18 23 23 24 26 28 27 26 26 26 27 28 29 29 29 29 30 31 28 27 26 25 26 26
14 15 15 15 16 16 16 17 18 19 20 22 22 19 15 15 16 17 18 25 26 25 24 25 26 26 26 26 30 30 32 31 31 32 30 30 32 29 28 27 26 27 26
14 15 15 16 16 17 17 17 18 19 20 21 21 21 21 22 28 32 32 32 27 25 24 24 25 26 27 27 30 32 30 31 29 29 30 31 31 29 28 27 26 26 24
14 15 15 16 16 16 17 17 17 18 19 20 21 23 23 22 25 26 26 29 27 25 27 25 26 28 29 29 27 29 30 31 30 30 30 29 32 29 27 27 26 25 24
14 15 15 16 16 16 16 16 17 18 19 20 21 22 21 23 23 24 24 26 26 25 25 26 26 26 27 27 28 32 31 32 32 30 31 31 29 28 28 27 26 25 24
14 15 15 15 15 16 16 17 17 18 19 20 20 21 22 23 23 23 24 28 26 28 28 28 30 28 28 30 30 29 29 29 29 30 32 31 29 28 28 27 26 25 24
14 15 16 16 17 17 17 18 19 19 20 20 21 21 22 23 25 25 26 29 30 33 35 34 30 29 29 32 31 29 27 29 29 29 31 31 30 28 27 27 26 25 24
15 16 17 17 17 18 19 19 20 20 20 21 21 21 23 24 25 26 27 29 30 34 32 34 32 31 31 32 31 30 32 32 31 33 30 29 29 29 28 27 26 25 24
16 16 17 18 19 19 19 20 20 20 21 21 22 22 23 24 24 26 27 29 30 30 31 32 31 32 31 29 29 29 32 32 31 33 31 28 29 29 28 28 27 25 24

GFSGL_con_lsi_147.txt.gz
Lid_Strength_Index
11 10 11 12 11 12 12 13 13 13 12 12 11 12 13 13 12 12 13 13 13 13 11 11 11 11 11 11 11 11 11 11 12 11 11 13 14 14 13 11 10 11 11
11 12 12 12 12 13 13 13 13 13 12 12 12 13 13 14 13 13 13 13 13 13 12 12 12 11 11 11 12 13 13 12 14 15 14 16 16 16 14 14 12 12 13
12 12 13 13 13 13 14 14 14 13 13 12 12 13 14 14 14 14 13 13 12 13 13 12 12 12 12 12 13 14 14 14 14 15 16 16 16 17 16 15 14 13 15
12 13 13 13 13 14 14 14 14 13 13 13 13 13 13 14 13 13 13 13 12 13 12 12 12 12 13 14 15 15 15 15 16 16 16 16 18 18 17 17 16 15 16
12 12 13 13 13 14 14 14 14 14 13 13 13 13 13 13 13 13 13 13 12 13 13 13 12 13 14 14 15 15 16 17 17 17 18 18 19 20 20 17 17 13 15
13 13 13 13 13 14 14 14 14 15 14 13 13 14 13 13 13 14 13 13 13 13 14 14 13 14 15 16 16 15 16 17 19 19 18 18 18 19 19 18 17 15 16
13 14 14 14 14 14 14 15 15 15 14 14 14 14 13 13 13 14 14 13 13 14 14 14 15 15 16 16 17 17 16 16 17 18 19 19 19 19 19 18 17 15 17
14 14 14 14 15 15 15 16 16 15 15 15 15 14 13 13 13 14 14 13 13 14 14 14 15 15 16 17 18 18 19 17 16 16 17 18 18 18 19 17 16 15 15
14 14 14 14 15 16 17 18 17 16 16 16 14 14 14 14 14 14 14 14 14 14 14 14 14 15 16 17 18 20 20 20 18 17 17 18 18 17 18 17 18 17 18
14 14 14 14 16 18 18 18 17 16 15 14 15 14 14 14 14 14 14 13 14 14 14 14 14 15 16 17 19 19 21 21 20 20 20 19 19 19 18 19 19 19 19
13 13 14 14 16 17 17 17 17 16 16 16 16 15 15 14 14 14 15 14 14 15 15 15 14 15 16 17 17 19 20 20 21 20 20 20 19 19 19 19 19 19 20
13 13 14 15 15 15 16 16 16 16 16 16 16 15 14 13 14 14 15 15 15 16 16 16 15 16 17 18 19 19 21 21 20 21 21 22 22 22 21 20 20 19 19
13 14 14 14 14 14 15 16 16 15 15 15 15 15 15 13 13 14 14 15 16 16 16 17 18 18 19 19 20 21 21 21 21 21 22 22 22 21 20 19 19 19 19
13 13 13 13 14 14 15 15 15 15 15 15 15 15 15 14 14 14 14 16 18 18 19 20 21 22 23 22 21 21 21 21 21 22 21 21 20 20 20 20 20 20 19
13 13 13 13 14 14 14 15 15 14 14 15 15 15 15 15 15 16 16 17 18 20 21 20 20 20 20 20 20 21 21 20 21 21 21 21 21 20 20 19 20 20 20
12 12 12 13 13 14 14 15 15 14 15 14 14 14 15 14 15 16 16 17 19 20 20 20 20 20 20 20 20 21 21 22 21 21 21 22 22 21 21 20 20 20 21
12 12 12 12 13 13 14 14 15 14 14 14 14 14 14 14 14 14 15 16 18 19 19 20 20 20 20 20 21 21 22 22 22 22 22 23 22 21 21 21 20 20 21
11 12 12 12 12 13 13 14 14 15 15 15 13 13 13 13 14 14 16 17 19 20 19 20 20 20 20 20 21 21 22 22 22 22 23 23 23 22 21 21 21 22 21
12 13 13 13 13 13 13 14 14 14 15 15 15 14 13 14 14 15 17 17 19 19 20 20 20 20 21 21 22 22 23 23 23 23 23 23 23 22 22 22 21 22 22
13 13 13 13 14 14 14 14 15 15 15 15 15 15 15 16 18 19 19 19 19 19 19 20 21 21 21 21 22 22 21 22 22 22 23 22 23 22 22 22 21 21 20
13 13 13 14 14 14 14 15 15 15 15 16 15 15 16 16 18 19 19 20 20 20 20 20 20 21 21 21 21 21 22 22 23 23 23 22 23 22 22 21 21 21 20
13 13 14 14 14 15 15 15 15 15 15 16 16 18 18 16 18 18 19 20 20 19 19 20 20 20 20 20 21 21 22 23 22 23 23 24 23 22 22 21 21 21 20
12 13 13 14 14 15 15 14 15 15 15 15 16 17 18 17 18 18 19 20 20 20 20 20 20 21 21 22 21 21 22 22 22 23 24 23 23 22 22 22 21 21 21
12 13 13 13 14 14 14 14 14 15 15 15 16 16 17 17 18 18 19 20 21 21 22 22 21 22 22 22 22 21 21 22 22 23 25 24 23 22 22 22 21 22 21
12 12 13 13 14 14 14 14 14 15 15 16 16 16 17 17 18 18 20 21 22 22 23 23 22 22 23 24 24 23 25 26 25 26 23 23 23 24 23 22 22 21 21
12 13 13 13 14 14 14 15 15 15 16 16 16 16 17 17 18 19 20 22 22 23 23 23 23 24 23 23 23 23 25 26 25 27 24 22 23 22 22 22 22 22 21